Satellite-Ground Cal/Val Site Overpasses Predictions

Prediction of Satellite NPP Overpassing Cal/Val Site: Antarctic Dome C

Ground Cal/Val Site Location: Latitude: -75.10, Longitude: 123.35; Satellite-Ground Site NADIR distance within 100 km.

Table of predicted overpasses for the next 14.0 days since TLE Epoch: 3/26/2022
Interval Starting Time Ending Time Minimum Distance Time Minimum Distance (km)
1 03/26/2022 15:07:51 03/26/2022 15:07:59 03/26/2022 15:07:55 95.68
2 03/27/2022 14:48:51 03/27/2022 14:49:20 03/27/2022 14:49:05 15.55
3 03/29/2022 07:31:40 03/29/2022 07:32:09 03/29/2022 07:31:54 2.15
4 04/01/2022 14:55:07 04/01/2022 14:55:35 04/01/2022 14:55:21 20.83
5 04/02/2022 14:36:24 04/02/2022 14:36:38 04/02/2022 14:36:31 86.15
6 04/03/2022 07:37:56 04/03/2022 07:38:24 04/03/2022 07:38:10 35.98
7 04/04/2022 07:19:10 04/04/2022 07:19:29 04/04/2022 07:19:20 74.10
8 04/06/2022 15:01:24 04/06/2022 15:01:48 04/06/2022 15:01:36 57.82
9 04/07/2022 14:42:34 04/07/2022 14:42:59 04/07/2022 14:42:47 51.37
